Location: Anywhere
(41.5000°N, 71.4000°W)
Time: 03:21:46
(UTC-04:00)

IRAS - Visible Passes

Search period start: 06 October 2022 00:00
Search period end: 16 October 2022 00:00
Orbit: 877 x 907 km, 99.0° (Epoch: 06 October)

Date Brightness Start Highest point End Pass type
(mag) Time Alt. Az. Time Alt. Az. Time Alt. Az.
06 Oct 7.8 03:54:32 10° E 03:56:55 13° ENE 03:59:19 10° NNE visible
06 Oct 4.9 05:31:53 10° SSE 05:37:34 83° ENE 05:43:15 10° NNW visible
06 Oct 6.8 19:41:57 10° N 19:46:44 29° WNW 19:51:30 10° WSW visible
07 Oct 7.8 03:54:48 10° E 03:57:12 13° ENE 03:59:37 10° NNE visible
07 Oct 4.9 05:32:11 10° SSE 05:37:52 84° ENE 05:43:32 10° NNW visible
07 Oct 6.8 19:42:15 10° N 19:47:01 29° WNW 19:51:47 10° WSW visible
08 Oct 7.8 03:55:04 10° E 03:57:30 13° ENE 03:59:55 10° NNE visible
08 Oct 4.9 05:32:28 10° SSE 05:38:09 84° ENE 05:43:49 10° NNW visible
08 Oct 6.8 19:42:32 10° N 19:47:18 29° WNW 19:52:03 10° WSW visible
09 Oct 7.7 03:55:19 10° E 03:57:47 13° ENE 04:00:13 10° NNE visible
09 Oct 4.8 05:32:46 10° SSE 05:38:26 84° ENE 05:44:07 10° NNW visible
09 Oct 6.8 19:42:50 10° N 19:47:35 29° WNW 19:52:20 10° WSW visible
10 Oct 7.7 03:55:35 10° E 03:58:04 13° ENE 04:00:33 10° NNE visible
10 Oct 4.8 05:33:03 10° SSE 05:38:43 85° ENE 05:44:24 10° NNW visible
10 Oct 6.8 19:43:08 10° N 19:47:52 28° WNW 19:52:37 10° WSW visible
11 Oct 7.7 03:55:51 10° E 03:58:21 13° ENE 04:00:51 10° NNE visible
11 Oct 4.8 05:33:21 10° SSE 05:39:01 85° ENE 05:44:42 10° NNW visible
11 Oct 6.8 19:43:26 10° N 19:48:09 28° WNW 19:52:54 10° WSW visible
12 Oct 7.7 03:56:06 10° E 03:58:38 13° ENE 04:01:10 10° NNE visible
12 Oct 4.8 05:33:38 10° SSE 05:39:18 86° ENE 05:44:58 10° NNW visible
12 Oct 6.8 19:43:43 10° N 19:48:27 28° WNW 19:53:11 10° WSW visible
13 Oct 7.7 03:56:22 10° E 03:58:55 13° ENE 04:01:28 10° NNE visible
13 Oct 4.8 05:33:56 10° SSE 05:39:35 86° ENE 05:45:16 10° NNW visible
13 Oct 6.8 19:44:00 10° N 19:48:44 28° WNW 19:53:27 10° WSW visible
14 Oct 7.7 03:56:38 10° E 03:59:12 13° ENE 04:01:47 10° NNE visible
14 Oct 4.8 05:34:14 10° SSE 05:39:53 87° ENE 05:45:33 10° NNW visible
14 Oct 6.8 19:44:18 10° N 19:49:01 28° WNW 19:53:44 10° WSW visible
15 Oct 7.7 03:56:53 10° E 03:59:29 13° ENE 04:02:05 10° NNE visible
15 Oct 4.8 05:34:31 10° SSE 05:40:10 87° ENE 05:45:51 10° NNW visible
15 Oct 6.8 19:44:36 10° N 19:49:19 28° WNW 19:54:01 10° WSW visible
